Theta_e
354 355 355 354 354 350 345 345 345 344 345 344 345 345 345 346 346 346 345 345 344 344 340 335 331 332 331 330 331 331 334 336 337 339 344 347 347 347 347 347 347 348 348 348 346 345 347 346 345 345 344 344 345 345 345 346 347 347 348 348 346 344 343
354 355 357 356 356 353 349 349 346 345 346 345 345 346 346 347 347 347 346 347 346 346 345 342 335 331 331 331 331 330 332 333 333 336 341 346 349 348 346 345 346 347 347 346 343 344 347 347 345 345 345 342 343 345 345 345 347 347 348 348 348 348 345
353 355 356 355 356 354 353 352 349 346 346 346 346 346 346 347 347 348 347 347 347 347 346 347 343 336 331 331 332 332 332 333 333 336 340 344 347 347 347 347 346 346 345 345 344 343 345 346 345 345 346 344 341 343 344 344 346 347 347 347 348 349 346
354 354 355 353 353 353 352 352 351 348 347 346 347 347 347 348 348 348 348 347 348 347 347 348 348 343 335 331 333 333 333 333 334 336 338 340 341 344 347 348 348 347 344 343 344 345 345 347 347 345 347 347 344 342 342 343 344 344 345 346 347 348 346
353 353 353 352 351 353 353 353 351 349 348 348 348 348 348 348 349 348 348 348 348 348 348 348 349 349 342 334 332 334 334 335 335 336 337 337 338 342 346 347 347 347 344 342 343 346 348 348 348 346 347 348 346 342 340 341 343 343 344 345 346 346 345
350 348 348 349 351 354 354 353 353 351 350 349 348 349 349 349 349 348 348 349 348 348 349 349 350 351 348 339 334 335 335 334 335 335 336 336 337 341 345 346 345 345 344 343 344 347 349 350 351 349 348 347 347 344 340 340 341 342 342 343 345 346 345
347 346 347 348 350 353 353 353 354 353 351 349 349 350 350 349 349 349 348 348 348 349 349 350 350 351 350 347 344 344 343 341 340 338 338 337 337 339 342 344 344 345 345 346 347 349 351 351 351 351 351 350 348 345 342 340 340 340 341 341 343 344 344
344 344 348 350 351 352 353 353 354 353 352 350 350 351 351 351 350 349 349 349 351 351 350 351 354 353 353 352 350 349 348 346 345 343 342 342 340 339 340 341 343 345 346 347 348 350 351 351 351 352 352 351 349 346 343 341 340 340 340 339 340 341 343
342 343 346 348 350 351 353 354 354 354 354 352 351 351 351 351 351 351 351 352 353 353 352 354 355 354 353 351 347 346 346 347 346 345 344 344 344 341 340 342 346 349 348 346 347 349 350 350 351 352 353 352 350 348 345 341 339 340 340 339 338 338 340
342 343 345 346 348 350 351 354 354 355 355 354 354 353 353 353 353 353 353 353 354 351 352 354 354 352 351 350 348 346 346 347 348 348 347 346 345 343 343 345 349 351 350 348 348 349 349 350 350 350 351 351 350 349 348 345 340 339 339 339 338 338 338
340 342 343 345 347 348 349 352 353 354 355 354 354 354 353 353 352 352 352 352 351 349 351 353 354 354 354 353 352 350 348 348 349 350 350 349 347 345 345 347 349 351 351 350 350 350 351 350 350 349 348 347 348 348 348 349 346 342 340 339 340 339 337
339 341 342 344 346 346 347 350 351 353 353 353 353 354 354 354 354 353 353 352 351 352 353 354 354 355 355 354 354 353 351 351 351 351 351 351 350 348 348 349 349 350 350 349 349 349 351 351 351 351 349 347 347 347 348 349 349 347 345 344 344 343 340
337 338 339 341 343 342 343 345 348 350 351 351 352 353 352 352 351 351 352 353 352 353 355 355 353 354 355 355 354 354 352 351 350 351 352 352 350 350 351 350 350 350 349 348 347 347 349 350 351 351 350 349 348 347 346 347 347 348 348 349 348 347 346
335 335 336 338 340 340 340 341 344 346 347 347 348 349 348 348 347 346 348 352 352 353 354 353 353 354 354 354 353 353 352 351 350 352 353 352 351 352 353 352 351 351 350 348 347 347 348 349 350 350 350 349 348 348 347 346 345 346 347 349 349 348 348
332 332 333 334 336 337 338 338 340 342 343 343 344 344 345 346 345 345 346 349 349 351 351 352 352 352 352 352 351 351 351 351 352 352 352 352 352 352 354 353 353 352 350 349 348 348 348 348 349 350 349 349 349 348 348 347 346 345 345 345 346 345 346
329 330 330 330 331 332 334 335 337 339 341 342 342 341 342 342 343 343 345 348 349 349 350 350 351 351 350 351 351 351 352 351 352 353 352 354 353 353 354 354 354 353 351 349 347 347 348 348 349 349 349 349 349 349 349 348 346 345 345 344 344 342 343
328 327 327 327 327 327 329 332 333 333 334 337 339 340 339 339 339 340 343 346 347 348 349 349 349 349 350 351 351 351 351 351 351 352 352 353 353 353 353 353 354 353 352 350 347 346 347 349 349 349 349 348 349 349 349 348 347 345 345 345 344 344 343
327 327 326 326 325 324 326 327 327 326 326 329 333 335 335 336 338 339 341 344 345 345 346 347 348 349 349 350 351 351 351 351 351 352 351 352 352 351 352 351 352 352 351 350 349 347 348 350 350 350 349 348 348 348 349 348 348 347 347 346 346 345 346
326 326 326 326 325 324 324 324 324 323 323 325 327 327 327 332 337 339 340 341 342 344 344 345 346 347 348 349 350 350 350 350 350 351 350 351 351 351 351 351 351 352 352 351 349 347 349 352 351 350 349 349 348 347 347 347 347 348 348 347 347 348 347
325 325 325 325 325 325 324 323 323 323 323 323 324 323 323 329 334 336 337 334 332 336 341 343 344 345 345 346 347 347 347 348 348 349 348 349 350 350 351 352 352 352 352 352 351 348 349 352 352 350 349 349 348 348 347 346 346 347 347 347 347 348 348
323 324 324 325 324 324 323 322 321 322 322 323 323 322 323 326 328 330 331 328 322 322 328 334 338 341 342 342 342 343 344 345 346 347 347 348 349 349 350 351 351 352 352 353 352 351 351 352 353 351 349 348 347 348 347 347 346 347 347 348 348 348 349
321 321 322 323 323 323 324 322 320 320 321 322 323 322 322 324 324 324 324 324 320 317 317 320 326 332 336 339 338 337 337 340 341 344 345 345 346 347 349 350 350 351 351 351 352 353 352 353 354 353 350 348 347 346 346 347 347 347 348 348 349 350 350
320 320 321 321 321 322 323 321 319 319 319 320 322 322 322 323 323 323 322 322 322 319 315 314 315 319 324 329 331 332 332 333 334 337 339 338 337 340 343 347 348 350 350 351 351 352 352 353 353 354 352 350 348 347 346 346 346 347 347 348 348 349 349
321 320 319 319 319 320 320 319 318 318 318 319 320 321 321 322 323 324 323 323 323 321 318 314 313 313 313 316 318 321 323 324 324 325 327 327 326 329 334 339 343 346 348 349 350 350 352 352 352 353 353 353 351 349 348 347 347 348 348 348 347 346 346
320 319 317 318 317 318 318 318 317 317 318 318 319 320 320 320 320 321 322 323 323 320 317 314 313 312 312 312 312 312 313 315 316 316 317 318 319 321 325 330 335 340 343 346 348 348 348 349 350 350 351 351 352 351 351 350 349 350 350 349 349 348 348
318 317 316 317 317 317 317 316 317 316 317 317 318 319 319 318 317 316 316 319 319 316 314 313 312 312 311 311 311 311 311 312 313 313 313 314 315 316 318 321 326 331 336 340 343 345 346 347 347 348 349 350 351 350 351 351 351 351 350 349 349 349 349
317 316 316 316 316 317 316 316 315 315 316 316 317 317 318 317 315 313 312 313 314 313 312 311 310 309 310 310 310 311 311 311 311 312 311 312 313 313 314 315 317 320 323 327 331 335 337 336 334 334 340 345 348 349 349 350 350 350 351 350 350 350 350
316 316 315 315 315 315 315 315 314 314 315 316 316 316 315 314 313 312 313 313 313 312 311 309 308 307 308 309 310 310 310 311 311 311 311 310 311 311 311 312 313 314 315 316 318 320 322 322 321 321 324 330 334 335 336 338 340 341 344 346 348 349 350
316 316 315 315 315 315 315 314 313 313 314 315 315 314 313 312 312 313 315 316 314 311 308 306 306 306 307 308 308 308 309 309 309 310 310 310 310 310 310 311 311 312 312 313 315 317 320 324 328 330 329 329 328 328 332 336 338 338 339 342 344 346 348
316 316 316 316 316 315 314 313 312 313 314 314 313 313 313 313 312 312 313 313 311 308 306 305 305 306 306 307 307 307 308 308 309 310 311 312 312 311 311 311 311 313 316 319 322 324 326 329 333 336 338 339 340 340 343 344 345 345 346 346 346 347 347
317 316 316 316 315 315 313 312 311 311 312 312 312 311 311 311 310 309 308 309 308 307 307 306 306 305 305 306 306 306 307 307 308 310 312 313 314 314 314 315 314 316 320 323 325 326 327 329 332 336 339 340 343 344 346 346 347 348 347 344 342 341 339
317 317 316 315 315 313 312 310 310 310 310 310 310 309 309 309 308 307 307 307 308 310 310 309 308 307 306 306 306 306 306 306 307 308 309 311 314 316 318 320 319 319 320 322 324 325 325 326 331 335 338 340 342 344 344 345 346 347 346 341 336 334 330
317 316 316 315 313 312 310 309 309 310 309 309 309 309 308 309 309 310 310 311 311 311 311 311 310 308 307 306 306 306 306 306 306 307 307 307 309 313 316 319 321 322 322 323 323 324 324 325 329 333 336 338 340 342 343 344 345 346 346 342 337 333 328
317 316 315 314 312 311 310 310 310 310 309 309 310 310 310 310 311 311 313 314 314 313 313 312 312 311 309 308 307 307 306 306 306 306 306 306 307 308 309 312 315 317 320 322 324 324 324 324 325 328 331 333 334 337 339 341 342 343 343 341 338 334 328
316 315 313 312 312 312 312 311 310 310 310 311 311 311 311 311 311 311 312 313 313 314 314 313 313 312 311 310 309 308 308 307 307 307 306 306 307 306 307 307 309 310 312 316 319 322 323 323 322 323 325 326 328 329 332 335 338 339 340 340 338 332 325
314 313 313 312 312 312 312 311 311 311 311 311 311 311 310 310 310 310 310 311 311 311 311 311 311 311 310 310 309 309 308 307 307 307 307 307 307 306 306 307 307 308 308 309 311 313 315 317 318 319 319 320 320 321 321 323 325 326 328 329 328 323 318
314 313 313 312 312 312 311 311 311 311 311 311 311 310 310 309 309 309 308 308 309 309 310 310 310 310 310 309 309 308 307 307 307 306 306 305 306 306 305 305 305 306 307 307 307 308 309 310 311 312 312 313 313 313 314 315 316 317 320 321 319 318 316
313 313 312 312 312 311 311 311 311 311 310 310 310 310 309 309 309 308 308 308 309 309 310 310 310 310 310 309 309 308 308 308 307 307 306 306 305 305 305 305 305 305 305 306 307 307 307 307 307 308 309 309 310 310 311 312 313 315 318 319 320 322 323
Wind_Speed
29 26 27 25 23 29 36 38 40 40 38 36 35 32 32 31 28 27 28 27 26 24 23 25 27 27 26 24 23 22 22 23 23 21 20 18 18 19 19 18 18 17 15 13 11 9 8 9 8 9 10 9 8 9 9 9 8 8 8 8 8 8 8
27 24 24 23 24 26 26 29 34 37 38 36 35 34 34 34 31 29 29 28 26 25 22 23 25 26 25 24 24 24 23 23 23 21 21 19 17 18 19 19 18 17 15 13 11 9 9 9 8 8 10 9 8 8 8 8 8 8 9 9 8 9 9
23 23 20 19 25 24 16 19 26 31 37 37 36 36 35 34 33 30 31 30 28 26 24 23 23 24 25 24 24 24 24 24 23 22 22 20 19 18 18 18 18 17 16 14 12 11 9 9 8 8 10 9 8 8 8 8 8 8 9 9 10 9 9
16 15 12 12 22 18 11 15 24 28 36 40 37 37 36 34 32 31 31 31 30 29 27 24 22 23 25 24 24 24 23 23 23 23 22 20 19 18 17 17 16 17 17 15 13 12 10 9 10 9 10 10 9 9 9 8 8 8 8 9 10 10 9
11 11 10 11 14 16 12 18 26 28 35 39 36 35 34 34 33 32 32 31 31 30 28 25 22 22 25 25 24 23 22 22 22 22 22 20 19 18 17 16 15 15 16 16 14 13 11 10 10 10 10 10 10 10 10 10 9 9 9 9 9 9 9
9 9 11 11 11 19 23 23 24 26 31 35 35 33 32 34 33 32 33 31 30 31 28 26 24 22 23 24 23 21 20 21 21 21 21 20 20 20 18 16 15 14 14 15 14 14 13 11 10 11 10 10 11 11 11 11 11 10 10 10 9 10 10
14 12 12 10 10 17 22 21 20 21 24 30 34 32 30 33 33 33 33 31 30 31 30 27 25 23 23 23 21 20 20 20 20 20 19 19 20 20 20 19 17 15 14 14 14 14 15 14 12 11 11 10 12 12 11 11 12 11 11 11 10 10 10
20 20 18 13 9 11 14 16 17 18 20 26 32 32 30 32 33 32 32 32 32 33 31 28 26 25 25 24 21 19 20 21 22 21 20 19 19 19 19 19 18 15 14 15 15 15 16 17 15 14 13 13 13 13 13 12 11 11 12 12 12 11 11
23 23 22 19 15 12 11 13 17 19 20 24 28 29 30 30 30 30 31 31 32 31 30 29 28 24 22 20 19 19 21 22 22 22 22 21 20 19 19 19 17 15 14 15 16 16 17 17 17 17 16 15 14 13 13 14 13 12 12 12 12 12 12
22 22 21 19 17 14 13 14 17 18 19 22 24 24 25 26 26 27 28 27 27 26 28 30 27 24 21 20 19 20 21 21 22 22 21 22 22 20 19 19 18 17 15 15 16 17 17 17 18 18 19 19 18 15 14 14 14 14 14 13 12 12 13
18 19 19 18 17 15 14 15 16 16 17 19 20 19 18 19 20 22 23 23 23 24 27 29 28 24 23 22 21 22 22 21 22 22 20 21 21 21 20 20 20 19 18 17 17 17 18 18 18 18 19 19 19 18 16 15 15 15 15 14 13 13 13
16 17 18 18 17 15 15 15 15 15 15 14 15 16 15 15 17 20 22 23 21 21 24 26 26 25 23 22 22 23 23 23 23 22 21 21 21 22 22 22 21 21 21 20 19 18 19 20 20 19 19 18 18 18 18 18 17 16 16 15 15 14 14
18 18 18 17 17 16 16 16 15 14 14 13 12 12 11 12 13 14 17 20 20 20 19 19 21 23 23 22 22 23 23 23 23 22 20 20 22 22 22 23 24 23 22 22 20 20 20 21 22 22 21 19 18 17 16 17 18 18 18 18 17 17 17
20 19 17 17 16 15 15 17 15 13 12 12 12 12 11 11 11 9 8 11 18 19 15 14 17 19 19 18 18 20 22 22 22 21 19 19 22 23 22 23 25 24 24 23 22 21 21 21 22 24 23 21 19 17 15 15 16 18 19 20 20 20 20
21 20 18 17 16 13 13 14 15 14 13 11 12 12 12 12 12 13 14 11 13 14 11 11 13 14 14 14 14 15 17 18 20 21 21 20 21 22 23 23 24 24 24 24 23 23 23 22 22 24 25 23 21 19 17 16 16 15 16 18 20 22 23
21 20 20 19 17 14 12 11 12 13 12 11 11 11 12 12 12 15 19 19 13 9 8 8 9 10 11 11 9 9 11 13 15 17 20 21 21 22 23 23 23 23 24 24 22 22 24 24 23 24 26 25 24 22 20 19 17 15 15 15 15 17 20
22 21 20 19 18 16 14 14 14 12 11 9 8 7 8 10 12 13 14 15 14 11 9 7 7 9 10 9 9 9 10 11 13 15 17 19 21 22 23 23 23 23 24 24 22 21 21 22 23 24 25 26 25 23 22 22 20 18 16 15 15 15 16
22 22 20 19 18 16 16 17 17 16 16 14 11 9 8 9 11 12 12 11 12 11 9 8 8 8 9 10 10 10 10 11 12 13 14 16 17 18 20 20 20 21 22 24 24 24 21 18 20 24 25 26 26 24 24 24 24 23 22 21 19 18 17
24 23 21 19 18 17 16 15 16 17 17 17 17 15 13 14 16 15 15 13 11 9 8 7 7 8 8 10 10 11 11 10 11 11 11 12 13 14 15 16 17 19 20 21 23 26 24 19 19 23 26 27 27 26 25 24 25 25 25 24 23 22 21
24 22 20 19 18 16 15 14 15 17 17 17 16 14 14 16 17 17 17 16 13 11 10 8 7 7 6 6 8 9 9 8 8 10 11 11 12 13 14 15 15 16 18 19 22 25 25 22 21 23 26 28 27 26 26 25 24 24 24 25 24 24 24
23 22 21 21 18 16 15 15 14 15 17 18 16 15 17 17 16 15 16 16 15 14 12 11 10 10 8 7 6 5 6 6 7 9 11 11 12 14 15 16 16 16 17 18 20 23 24 23 23 24 26 28 28 27 26 25 25 24 24 24 23 23 24
24 23 23 22 19 16 14 14 14 14 15 16 16 16 17 16 14 13 13 14 14 14 14 14 13 13 12 11 10 8 6 5 6 7 9 9 11 12 14 15 16 16 17 17 18 20 22 22 22 24 27 28 29 29 29 28 27 26 25 24 23 22 22
22 23 23 20 17 16 16 14 14 13 12 13 14 15 15 14 12 12 11 11 10 9 11 14 14 13 11 10 9 8 7 6 5 4 5 5 6 7 9 11 13 14 16 17 17 18 20 21 21 22 25 28 30 31 31 31 31 29 28 27 26 26 27
20 21 21 19 17 18 18 15 13 11 10 11 11 12 14 14 12 11 10 8 7 5 6 9 10 10 10 9 8 7 6 6 4 3 3 2 2 2 3 5 8 10 13 15 17 17 18 20 21 20 22 26 29 31 32 33 33 31 31 31 31 32 34
20 20 19 17 17 19 18 14 13 12 10 10 9 8 9 11 10 9 8 6 4 2 2 3 5 6 6 5 5 5 4 4 4 3 3 2 1 1 1 1 3 6 9 12 14 15 15 16 18 19 19 21 25 28 30 31 32 32 33 33 33 34 35
21 20 19 17 16 15 14 12 11 12 11 10 9 7 6 6 5 5 6 6 5 3 1 0 0 2 2 2 2 1 1 1 1 1 0 0 1 2 2 2 1 3 5 8 11 13 13 15 17 18 18 18 21 23 24 25 26 27 29 31 32 32 33
19 18 18 18 15 13 12 9 8 9 9 8 8 7 6 5 4 4 5 6 6 4 2 2 2 2 1 1 2 3 3 3 3 3 3 3 3 2 2 2 3 2 2 4 6 8 9 11 13 14 15 15 17 18 19 20 21 21 23 25 27 28 29
18 17 17 16 13 11 10 8 6 7 8 7 6 6 5 4 4 5 5 6 5 3 2 2 2 3 2 3 3 4 5 5 5 5 5 5 6 5 4 3 3 3 2 2 2 4 5 6 8 9 10 11 13 14 15 15 15 16 18 19 21 23 25
18 16 15 14 11 10 8 7 7 7 7 6 5 5 5 5 5 5 5 4 3 2 2 3 2 3 3 3 4 4 4 5 5 6 6 5 5 5 5 4 3 3 4 4 4 4 3 4 5 5 6 7 8 9 10 9 10 12 13 15 16 18 20
16 14 14 12 10 8 6 5 6 7 6 5 5 4 6 6 5 4 4 3 2 2 2 2 2 3 3 3 4 4 4 5 5 4 4 3 4 4 5 5 4 3 2 2 3 4 4 4 5 5 5 5 5 6 6 6 7 8 9 9 10 12 14
14 13 11 9 8 6 5 5 6 5 5 5 4 4 4 4 4 3 3 2 1 2 2 3 3 3 3 4 4 4 5 5 5 5 5 4 4 4 4 5 5 5 5 4 4 5 6 6 7 7 6 7 7 7 7 7 8 9 8 7 9 11 12
14 12 10 8 7 5 4 4 5 5 4 4 3 3 3 3 2 2 2 1 1 2 3 4 5 6 6 5 5 5 6 7 7 8 8 7 7 6 5 6 6 7 7 7 8 8 8 8 8 8 8 9 9 10 11 12 12 12 11 11 12 14 15
14 11 9 8 7 5 4 4 3 3 2 2 2 2 2 2 1 1 1 1 3 4 6 6 7 8 8 8 8 8 8 9 10 10 10 10 10 9 8 8 8 9 9 9 10 11 11 11 11 10 10 10 11 13 15 16 16 16 15 15 17 18 19
14 12 9 7 5 4 4 3 2 1 1 1 1 1 1 1 2 2 3 3 5 6 7 8 9 9 10 10 10 10 10 11 12 12 12 12 13 13 12 12 12 12 12 11 12 14 15 15 15 14 14 15 15 17 18 19 19 19 19 20 21 22 25
13 9 7 6 5 5 4 1 1 1 0 0 1 2 3 3 3 4 5 6 7 8 8 10 11 11 12 12 11 12 12 13 13 14 15 15 15 15 15 15 15 16 16 14 15 16 19 20 20 19 19 20 20 21 22 23 23 23 23 24 25 27 29
10 8 8 8 7 6 3 1 1 1 1 2 4 6 7 7 7 7 8 8 10 10 10 11 12 13 13 14 14 14 14 15 15 16 16 16 17 18 18 17 17 18 18 18 17 17 19 22 23 24 25 25 26 25 26 28 28 28 28 28 29 30 31
9 8 10 10 9 6 3 3 4 4 4 4 6 8 10 11 12 11 10 9 10 11 12 12 13 14 14 15 15 15 15 16 16 17 17 17 18 19 20 20 20 19 19 20 20 19 19 20 22 23 24 26 27 27 27 28 29 27 26 26 27 28 28
9 10 11 11 9 7 6 6 7 6 6 6 7 9 11 12 12 11 9 7 8 10 11 12 13 14 15 15 16 16 16 16 16 17 18 18 19 20 21 23 24 23 22 21 21 22 22 21 21 22 21 22 23 25 25 26 25 25 24 24 24 24 23
Wind_Direction
195 198 197 195 192 187 189 191 190 190 192 195 199 200 203 205 207 209 209 209 211 212 211 208 207 208 209 209 208 207 208 211 213 211 206 204 204 208 211 215 220 225 228 228 227 221 212 207 208 213 213 210 210 214 214 213 217 225 231 227 217 220 223
195 198 197 194 187 181 183 185 186 188 190 194 199 202 204 205 207 210 210 211 212 214 214 213 211 210 211 210 208 207 207 209 213 213 210 208 208 213 217 220 222 226 228 228 227 220 208 206 209 210 212 207 206 218 218 213 219 226 230 231 226 225 225
200 204 204 199 194 185 166 169 179 184 189 193 199 203 205 206 209 212 213 212 213 215 217 218 218 215 213 211 208 208 208 209 210 211 211 213 214 217 220 221 223 227 229 226 225 225 218 217 218 213 214 210 204 215 220 216 221 224 227 231 229 228 228
192 196 191 190 196 183 131 156 180 185 192 196 199 202 204 207 212 214 215 215 215 216 218 220 223 220 215 212 209 209 209 209 211 211 212 215 218 220 219 219 221 225 229 226 223 225 224 224 226 222 219 216 210 213 219 221 222 222 225 231 230 229 231
156 161 143 132 170 186 181 190 195 193 196 199 200 202 204 209 215 217 216 216 217 218 220 222 225 223 219 215 210 209 209 210 212 213 215 216 217 220 222 222 223 223 226 226 221 220 220 221 229 230 225 223 221 215 215 221 223 224 228 230 232 235 234
124 145 146 131 159 195 200 200 201 201 201 201 202 205 207 210 214 216 216 217 217 218 220 221 225 225 221 217 215 214 213 212 214 216 218 219 219 220 222 226 230 229 228 225 221 220 222 224 230 234 233 232 230 222 217 218 218 222 228 229 232 236 233
94 104 125 141 173 194 194 190 193 197 199 202 204 206 206 207 209 211 214 215 215 216 218 220 224 225 222 217 216 219 220 219 218 219 221 223 223 223 222 225 230 234 234 227 223 224 227 230 231 234 242 244 239 233 228 223 218 218 224 228 230 233 234
87 92 100 111 138 170 181 182 183 187 192 199 202 202 202 205 206 207 210 211 209 210 213 216 215 212 211 211 212 217 221 219 216 216 219 222 224 224 222 223 225 231 236 231 225 225 228 233 234 236 244 248 245 241 238 235 226 221 224 226 227 230 235
91 94 98 102 108 125 150 167 179 190 196 200 201 202 205 208 207 208 210 207 204 208 213 213 210 207 208 211 213 216 218 220 219 216 214 215 219 222 219 218 218 225 234 234 228 223 225 230 233 234 239 245 246 243 241 239 234 229 229 226 226 230 234
98 99 103 105 106 114 134 156 174 187 195 201 203 204 208 212 211 212 214 211 210 216 219 216 214 213 213 211 212 216 216 219 223 224 220 215 216 219 218 217 216 220 229 233 230 225 223 226 230 233 237 242 246 245 242 242 239 237 235 230 227 231 234
103 103 105 107 110 113 124 143 163 177 187 195 200 203 203 207 210 212 213 214 216 219 219 218 217 215 214 214 215 218 219 219 221 225 226 221 218 218 220 221 221 221 224 226 227 229 229 227 230 235 238 241 245 249 248 247 245 242 241 238 235 234 236
109 108 108 109 111 109 112 125 144 162 173 181 195 202 197 194 201 204 202 201 205 209 210 211 213 214 215 217 218 220 223 223 223 224 225 225 223 220 219 224 227 226 227 225 223 225 229 231 234 237 241 242 245 249 253 252 250 247 246 245 244 244 244
113 112 111 114 114 110 108 113 127 145 154 155 166 180 182 181 187 192 194 193 196 202 205 202 203 208 214 216 217 220 223 226 227 226 226 229 229 225 221 223 228 230 231 230 227 223 224 230 236 239 242 245 246 250 256 257 256 253 250 248 249 251 253
113 111 112 115 118 116 111 112 120 132 137 133 131 135 135 133 127 121 140 183 196 199 200 199 200 205 212 218 221 223 225 228 231 231 233 234 234 232 229 226 228 231 232 232 232 228 225 227 233 239 242 244 247 252 257 260 260 257 254 253 252 253 255
111 109 109 110 114 116 114 115 120 124 126 127 124 122 122 120 114 103 102 133 187 199 191 193 201 203 209 216 223 229 230 229 231 232 234 236 235 235 235 233 232 233 232 231 231 231 230 228 230 236 240 242 245 249 253 258 262 262 261 260 259 257 257
110 107 106 104 104 108 110 110 116 124 131 138 131 117 112 111 107 104 105 115 140 169 174 187 202 200 199 200 201 213 221 223 228 232 232 233 233 234 236 237 237 235 232 229 228 230 233 233 232 233 237 241 245 247 249 252 259 265 268 269 268 265 263
113 107 103 99 96 97 101 103 106 109 112 123 134 127 113 101 97 102 111 118 127 136 143 162 180 185 189 188 181 184 191 204 219 226 229 231 232 233 235 237 239 238 232 227 226 227 230 235 238 237 236 239 243 246 248 249 255 263 266 269 271 271 270
114 111 107 104 100 92 91 95 96 92 88 89 96 102 102 98 98 109 123 127 127 131 136 145 153 163 177 184 187 192 192 196 205 213 220 224 226 229 231 233 234 233 230 228 226 223 223 231 239 240 238 239 241 245 247 248 251 256 260 262 263 266 270
118 118 115 111 108 103 101 103 104 100 92 90 91 90 95 104 108 110 114 113 116 126 133 141 150 162 177 184 192 200 202 204 208 212 218 222 222 223 225 226 227 226 226 227 224 219 219 225 232 234 235 238 240 244 246 248 249 251 254 257 258 259 263
120 119 116 113 112 112 110 108 110 109 102 98 96 87 89 105 111 108 104 99 100 113 127 138 148 158 172 186 200 214 222 225 226 228 234 235 230 227 225 226 227 224 223 223 221 220 222 229 233 231 231 234 237 240 244 247 248 248 249 252 255 256 257
120 119 120 120 117 116 111 100 102 110 110 107 102 90 86 96 102 101 98 96 91 95 109 127 137 139 137 137 147 187 222 226 225 230 235 235 232 231 230 228 228 228 225 222 221 223 226 234 238 235 232 233 234 237 240 243 245 245 245 248 252 255 257
126 125 126 123 118 121 122 107 98 107 115 117 115 108 101 99 101 100 98 100 98 92 95 105 114 124 134 139 137 137 153 177 198 217 226 233 235 235 235 233 233 234 233 230 228 226 228 234 239 237 234 233 234 236 239 241 243 243 242 243 246 250 253
129 127 126 120 115 122 125 114 104 106 115 120 122 123 119 113 113 111 105 106 110 104 98 95 97 103 116 132 142 143 145 153 170 192 207 226 240 244 244 243 241 241 240 239 236 233 232 234 238 240 237 234 235 237 239 241 243 244 245 245 246 248 252
133 130 127 119 115 121 124 121 116 116 117 117 118 125 128 125 121 121 118 114 114 114 104 97 96 99 101 107 116 124 129 133 135 135 145 181 230 261 260 249 247 249 250 248 245 241 238 237 240 247 246 240 238 240 241 242 243 246 249 251 251 253 255
135 133 132 125 119 123 128 127 127 129 132 130 124 126 135 137 133 131 132 134 135 134 98 83 93 101 103 102 101 102 112 120 121 115 106 104 98 67 34 266 250 257 263 263 259 255 253 249 248 254 257 250 244 245 247 248 247 248 251 252 253 255 257
137 137 140 138 133 135 138 138 135 136 140 142 142 147 160 167 164 159 163 175 192 208 222 293 46 89 100 114 120 125 146 140 146 155 124 26 55 56 36 12 335 290 282 281 279 275 272 267 262 262 265 263 256 253 254 257 257 255 254 254 254 255 256
142 142 144 145 146 152 156 157 150 142 142 150 159 172 186 198 200 186 179 190 206 219 228 250 283 308 300 254 246 255 263 267 273 282 292 298 305 337 359 356 354 349 328 301 289 282 275 270 267 265 267 270 269 266 265 265 265 264 262 259 257 256 257
148 147 147 148 155 167 173 176 172 161 161 168 179 189 199 209 200 181 180 193 200 212 244 272 300 311 298 276 264 264 266 269 277 286 292 298 304 311 318 322 322 325 326 310 284 267 257 257 262 263 262 263 266 268 268 266 263 261 260 259 258 257 258
152 152 152 154 164 177 182 182 179 175 178 185 193 193 193 201 200 183 186 203 211 231 264 280 298 302 299 288 279 277 273 269 273 280 284 291 297 297 299 296 292 300 305 304 305 297 283 282 286 280 272 263 257 257 260 260 257 255 252 251 253 255 257
157 159 159 163 175 186 192 193 190 186 188 195 201 194 187 196 209 210 216 234 255 267 267 270 278 286 297 299 295 295 289 279 275 273 271 271 269 267 266 265 263 260 258 274 296 293 283 285 289 285 280 271 258 254 260 263 260 257 256 257 262 266 271
164 167 168 173 184 193 202 206 205 205 204 206 213 215 207 209 218 227 239 258 284 284 281 283 283 282 289 297 301 300 292 284 276 267 259 252 247 245 245 245 239 222 212 220 241 256 263 270 272 271 271 270 266 264 264 262 257 253 258 274 283 286 289
170 174 182 191 195 202 210 211 211 215 218 224 232 240 249 253 243 238 254 271 288 291 294 295 291 288 289 292 297 298 294 289 283 279 275 270 264 257 250 249 247 238 232 235 241 248 258 268 271 270 267 264 264 263 261 259 256 256 262 278 288 292 294
179 184 193 204 210 214 215 207 203 212 237 265 267 264 275 279 262 202 205 250 263 271 280 285 286 285 286 286 288 291 292 290 288 289 288 285 280 274 266 259 259 258 254 254 257 257 258 260 263 264 264 263 261 260 260 259 259 259 262 271 282 291 297
185 187 192 203 212 209 201 200 214 255 286 293 279 271 271 256 226 200 200 223 246 258 270 277 279 283 286 285 284 283 282 282 284 286 287 287 286 286 283 278 273 269 264 263 267 271 270 266 263 262 264 267 267 265 263 260 259 263 267 271 280 290 296
180 178 180 185 183 181 183 210 331 348 40 216 268 293 289 270 252 236 227 235 248 257 268 273 277 284 287 287 286 283 280 280 282 283 284 285 285 285 285 285 285 282 277 269 266 269 274 276 274 272 269 269 269 270 271 267 264 265 269 274 281 288 292
170 163 164 167 168 176 193 304 350 156 176 242 282 300 303 298 290 280 270 267 268 271 275 276 277 281 283 284 286 286 286 287 288 287 287 287 287 285 282 280 280 282 282 279 272 266 266 269 272 274 274 274 273 274 275 274 273 273 273 275 279 281 282
178 172 169 168 171 183 203 195 182 192 218 252 279 298 304 305 305 302 294 284 277 275 275 277 280 283 283 285 288 290 293 294 292 290 289 287 288 289 288 284 280 277 279 282 281 277 271 268 268 269 272 274 275 275 274 273 274 276 276 275 275 275 276
186 181 179 183 192 205 207 198 200 217 241 261 280 293 300 304 306 308 305 291 278 274 273 276 282 286 287 288 290 292 294 295 293 293 293 291 291 292 293 292 290 286 282 281 284 285 284 282 280 278 276 274 275 276 275 273 271 270 269 268 270 273 274